Content
SEND FEEDBACK

Daily
Averages
Monthly
Summary
United States of America

OTTERVILLE, MISSOURI


Home > North America > United States > Missouri
Elevation: 732 feet     Latitude: 38 45N     Longitude: 093 02W

WEATHER
 
SELECT A DAY
Number of Records: 189,447;   Date Range: 7/1/96 - 10/29/14
 
SHARE

PRINT THIS DATA

[ ← Previous Day ]
WEATHER ALMANAC - JANUARY 6, 2013
[ Next Day → ]
[ °C ]   °F
Weather ElementAverageHighLow
Temperature29.4 °F37 °F (3:53 pm)24.1 °F (8:53 am)
Dewpoint21.1 °F25 °F (1:53 am)18 °F (8:53 am)
Humidity71.9 %81 % (7:53 am)54 % (3:53 pm)
Barometer30.33 in30.40 in (10:53 am)30.18 in (3:38 am)
Wind Speed8.6 mph15 mph (6:53 am)
Weather ElementAverage
Visibility9.5 mi
Wind DirectionWSW (255.6 °)

Weather ElementTotal
Precipitation---
Heating Degree Days34.5 (Base 65)
Averaged from 25 records on January 6, 2013
WEATHER CONDITIONS BREAKOUT
WIND DIRECTION BREAKOUT
WEATHER BY HOUR - JANUARY 6, 2013
[ °C ]   °F
Local TimeTemperatureDewpointHumidityBarometerVisibilityWind DirectionWind SpeedGust SpeedPrecipitationEventsConditions
1:53 AM30.9 °F25.0 °F79 %30.19 in10.0 miWest (260°)8.1 mphClear
2:53 AM30.0 °F24.1 °F79 %30.20 in10.0 miWNW (290°)10.4 mphClear
3:38 AM30.2 °F24.8 °F80 %30.18 in10.0 miWNW (300°)13.8 mphMostly Cloudy
3:53 AM30.0 °F24.1 °F79 %30.21 in10.0 miNW (310°)10.4 mphOvercast
4:53 AM28.9 °F21.0 °F72 %30.24 in10.0 miNW (310°)10.4 mphOvercast
5:53 AM28.9 °F21.0 °F72 %30.27 in10.0 miNW (310°)12.7 mphOvercast
6:53 AM27.0 °F19.9 °F75 %30.30 in9.0 miNW (310°)15.0 mphOvercast
7:42 AM24.8 °F19.4 °F80 %30.30 in6.0 miNW (310°)9.2 mphHaze
7:53 AM25.0 °F19.9 °F81 %30.33 in6.0 miNW (320°)15.0 mphHaze
8:53 AM24.1 °F18.0 °F77 %30.37 in7.0 miNW (320°)12.7 mphOvercast
9:44 AM24.8 °F19.4 °F80 %30.36 in9.0 miNW (320°)13.8 mphScattered Clouds
10:53 AM27.0 °F19.9 °F75 %30.40 in10.0 miWNW (300°)9.2 mphClear
11:53 AM28.9 °F21.0 °F72 %30.39 in10.0 miWNW (300°)8.1 mphClear
12:53 PM30.9 °F21.9 °F69 %30.37 in10.0 miWest (280°)9.2 mphClear
1:53 PM34.0 °F23.0 °F64 %30.37 in10.0 miWest (280°)5.8 mphClear
2:53 PM36.0 °F21.9 °F57 %30.37 in10.0 miWest (280°)6.9 mphClear
3:53 PM37.0 °F21.9 °F54 %30.36 in10.0 miWNW (290°)3.5 mphClear
4:53 PM36.0 °F21.0 °F55 %30.37 in10.0 miCalmClear
5:53 PM34.0 °F19.9 °F56 %30.37 in10.0 miSouth (180°)4.6 mphClear
6:53 PM30.9 °F19.9 °F64 %30.39 in10.0 miSouth (190°)4.6 mphClear
7:53 PM28.0 °F21.0 °F75 %30.38 in10.0 miSouth (190°)5.8 mphClear
8:53 PM28.0 °F21.0 °F75 %30.39 in10.0 miSouth (190°)5.8 mphClear
9:53 PM27.0 °F19.9 °F75 %30.39 in10.0 miSouth (190°)4.6 mphClear
10:53 PM26.1 °F19.9 °F78 %30.38 in10.0 miSouth (180°)5.8 mphClear
11:53 PM26.1 °F19.0 °F75 %30.37 in10.0 miSouth (180°)9.2 mphClear
Hourly data recorded from KDMO, located miles away from Otterville, Missouri







STORIES FROM OUR PARTNERS